sat.trackr.live / text

‹ back to catalog

STARLINK-32366

NORAD 61551 · 2024-184V

PAYLOAD ACTIVE UNKNOWN

§ Identity

Operator
Country
US
Launch date
2024-10-15
Launch site
AFWTR
Launch vehicle
Mass (kg)
RCS (m²)

Purposes: comms

External: N2YO · Heavens-Above · Gunter

§ Orbital elements

Epoch: 2026-09-21T11:35:25.640160Z

Period
93.85 min
Inclination
53.1582°
Eccentricity
0.0000763
Mean motion
15.34410261 rev/d
Perigee alt
462.2 km
Apogee alt
463.2 km
Semi-major
6,840.8 km
B*
-1.6452e-4
RAAN
180.9750°
Arg perigee
105.5870°
Mean anomaly
254.5217°
Rev number
10,853

§ Raw data

STARLINK-323661 61551U 24184V   26264.48293565 -.00005932  00000+0 -16452-3 0  99902 61551  53.1582 180.9750 0000763 105.5870 254.5217 15.34410261108536

JSON: /api/v1/satellites/61551 · /tle

For live sub-satellite position, see the globe view (requires WebGL).

§ Visibility from observer

Set your observer location to see the next 7 days of passes ≥ 10°. The values pass through the URL so the page stays shareable.

No JS? Fill the form by hand. The geolocation button needs JavaScript.